User: anonymous   Login
Location: Columbia
(38.9520°N, 92.3340°W)
Time: 18:07:12
(UTC-05:00)
Language:

FENGYUN 3A - Orbit

View from above orbital plane
View from above orbital plane
View from above satellite
View from above satellite

Ground track
Ground track

The orbit data is extracted from the following two-line orbital elements,

1 32958U 08026A   14297.75719786  .00000145  00000-0  88822-4 0  4814
2 32958 098.5395 352.1271 0009145 197.6877 162.3982 14.19481973332223
Epoch (UTC): 24 October 2014 18:10:21
Eccentricity: 0.0009145
inclination: 98.5395°
perigee height: 820 km
apogee height: 833 km
right ascension of ascending node: 352.1271°
argument of perigee: 197.6877°
revolutions per day: 14.19481973
mean anomaly at epoch: 162.3982°
orbit number at epoch: 33222

The dashed part of the orbit path shows where the satellite is in the earth's shadow,  

DLR